2021/10/10 20:31:28+0000,-39.81,-51.86,-32.48,-52.12,-54.36,-55.41
2021/10/10 20:32:20+0000,-40.58,-51.12,-32.30,-52.49,-53.70,-55.21
2021/10/10 20:33:12+0000,-39.81,-52.17,-32.15,-50.27,-53.40,-55.26
2021/10/10 20:34:04+0000,-40.13,-51.89,-32.75,-53.43,-54.28,-55.26
2021/10/10 20:34:56+0000,-40.43,-52.11,-32.46,-51.48,-54.45,-55.25
2021/10/10 20:35:48+0000,-39.58,-51.69,-32.17,-53.56,-53.01,-55.00
2021/10/10 20:36:40+0000,-39.47,-51.17,-32.54,-52.11,-54.45,-54.88
2021/10/10 20:37:32+0000,-39.71,-51.32,-32.99,-50.92,-54.26,-54.58
2021/10/10 20:38:24+0000,-39.61,-51.58,-32.06,-51.31,-53.38,-55.08
2021/10/10 20:39:16+0000,-39.43,-51.06,-32.03,-51.12,-52.86,-54.99
2021/10/10 20:40:09+0000,-40.12,-51.22,-32.60,-51.71,-54.18,-55.06
2021/10/10 20:41:05+0000,-39.47,-51.82,-32.94,-53.19,-53.71,-55.13
2021/10/10 20:41:57+0000,-39.96,-51.61,-33.47,-50.40,-53.85,-54.70
2021/10/10 20:42:49+0000,-39.68,-51.73,-33.12,-52.36,-54.22,-55.17
2021/10/10 20:43:41+0000,-39.59,-51.60,-32.82,-52.36,-53.41,-55.00
2021/10/10 20:44:33+0000,-39.60,-51.40,-33.21,-53.70,-53.47,-55.09
2021/10/10 20:45:25+0000,-39.66,-51.14,-33.10,-52.36,-54.31,-55.42
2021/10/10 20:46:17+0000,-39.27,-51.53,-33.41,-51.69,-53.56,-55.68
2021/10/10 20:47:09+0000,-40.42,-51.47,-32.71,-51.73,-53.89,-55.23
2021/10/10 20:48:01+0000,-40.63,-51.38,-32.94,-49.90,-53.79,-54.63
2021/10/10 20:48:53+0000,-40.55,-51.38,-33.55,-51.65,-53.00,-55.47
2021/10/10 20:49:46+0000,-40.46,-51.56,-33.25,-49.43,-53.94,-55.09
2021/10/10 20:50:38+0000,-39.91,-51.53,-32.81,-51.34,-53.76,-55.41
2021/10/10 20:51:39+0000,-40.15,-51.33,-32.82,-51.09,-52.82,-55.45
2021/10/10 20:52:31+0000,-40.72,-52.25,-32.77,-50.98,-53.12,-55.94
2021/10/10 20:53:23+0000,-40.79,-52.31,-32.95,-51.04,-52.64,-54.79
2021/10/10 20:54:15+0000,-39.89,-51.49,-33.39,-51.13,-52.66,-55.65
2021/10/10 20:55:07+0000,-39.30,-51.79,-32.25,-51.90,-52.83,-55.54
2021/10/10 20:55:59+0000,-40.36,-52.08,-32.55,-50.91,-52.69,-54.43
2021/10/10 20:56:51+0000,-40.37,-51.50,-33.55,-51.38,-53.43,-54.60
2021/10/10 20:57:43+0000,-39.64,-51.52,-33.04,-51.96,-52.83,-55.08
2021/10/10 20:58:35+0000,-39.77,-51.76,-33.37,-51.48,-53.27,-54.55
2021/10/10 20:59:27+0000,-39.62,-51.03,-32.67,-51.17,-52.57,-55.13
2021/10/10 21:00:20+0000,-39.83,-51.34,-32.44,-53.81,-52.46,-54.88
2021/10/10 21:01:15+0000,-39.85,-51.67,-32.32,-51.10,-52.48,-52.12
2021/10/10 21:02:07+0000,-40.22,-51.52,-32.65,-49.99,-52.61,-52.58
2021/10/10 21:02:59+0000,-40.29,-51.71,-33.19,-49.83,-52.94,-52.66
2021/10/10 21:03:51+0000,-39.63,-51.82,-33.09,-50.33,-52.91,-52.29
2021/10/10 21:04:43+0000,-39.41,-51.53,-32.77,-50.81,-53.61,-52.90
2021/10/10 21:05:35+0000,-39.32,-51.63,-32.90,-51.16,-52.24,-52.59
2021/10/10 21:06:28+0000,-39.33,-51.25,-32.46,-49.52,-53.11,-52.25
2021/10/10 21:07:20+0000,-39.06,-51.26,-32.54,-50.83,-52.20,-52.58
2021/10/10 21:08:12+0000,-38.97,-51.59,-32.91,-51.36,-52.68,-52.22
2021/10/10 21:09:04+0000,-38.46,-50.53,-33.08,-53.86,-52.67,-52.62
2021/10/10 21:09:56+0000,-39.96,-51.22,-32.91,-49.90,-52.84,-52.74
2021/10/10 21:10:48+0000,-39.82,-50.94,-32.60,-53.77,-52.75,-53.38
2021/10/10 21:11:49+0000,-39.66,-50.91,-32.46,-53.48,-52.17,-53.03
2021/10/10 21:12:41+0000,-39.71,-51.13,-32.48,-51.41,-52.66,-52.52
2021/10/10 21:13:33+0000,-40.02,-51.41,-32.93,-53.60,-52.99,-52.33
2021/10/10 21:14:25+0000,-39.95,-51.25,-33.31,-50.98,-52.88,-52.28
2021/10/10 21:15:17+0000,-39.88,-51.09,-32.58,-52.38,-52.30,-52.88
2021/10/10 21:16:09+0000,-39.59,-48.95,-32.93,-52.51,-53.26,-53.26
2021/10/10 21:17:01+0000,-39.59,-50.92,-33.65,-51.07,-52.38,-53.23
2021/10/10 21:17:53+0000,-39.73,-51.14,-33.09,-49.60,-51.92,-52.65
2021/10/10 21:18:46+0000,-39.08,-50.42,-33.65,-52.17,-52.30,-53.17
2021/10/10 21:19:38+0000,-39.48,-50.81,-32.42,-52.53,-52.68,-52.35
2021/10/10 21:20:30+0000,-39.13,-50.96,-32.86,-50.05,-52.87,-53.85
2021/10/10 21:21:31+0000,-39.87,-50.70,-33.66,-49.03,-52.84,-54.21
2021/10/10 21:22:23+0000,-39.64,-51.11,-32.87,-48.66,-51.97,-53.82
2021/10/10 21:23:16+0000,-39.83,-51.11,-32.87,-51.83,-51.72,-53.17
2021/10/10 21:24:08+0000,-39.14,-51.09,-32.93,-51.71,-52.63,-52.44
2021/10/10 21:25:00+0000,-39.33,-51.48,-33.20,-48.55,-52.84,-53.01
2021/10/10 21:25:52+0000,-39.95,-51.46,-33.04,-50.93,-52.03,-53.21
2021/10/10 21:26:44+0000,-39.33,-51.34,-32.91,-51.71,-52.32,-53.16
2021/10/10 21:27:36+0000,-39.55,-51.03,-32.90,-52.70,-52.65,-53.27
2021/10/10 21:28:28+0000,-39.78,-51.51,-33.38,-51.60,-52.63,-52.19
2021/10/10 21:29:20+0000,-39.34,-51.11,-33.36,-52.01,-52.98,-53.09
2021/10/10 21:30:12+0000,-39.27,-51.23,-33.32,-52.37,-52.72,-52.54
2021/10/10 21:31:14+0000,-39.14,-51.71,-33.86,-50.71,-52.31,-54.45
2021/10/10 21:32:06+0000,-39.61,-51.58,-33.64,-51.44,-52.18,-54.70
2021/10/10 21:32:58+0000,-39.89,-51.99,-33.51,-51.61,-52.88,-54.44
2021/10/10 21:33:50+0000,-39.74,-51.74,-33.18,-52.75,-52.88,-53.54
2021/10/10 21:34:42+0000,-39.46,-52.22,-34.20,-52.14,-53.81,-54.34
2021/10/10 21:35:34+0000,-39.50,-51.98,-32.57,-53.29,-52.22,-53.95
2021/10/10 21:36:26+0000,-39.03,-51.82,-33.20,-50.39,-53.39,-52.41
2021/10/10 21:37:18+0000,-38.87,-51.49,-33.52,-52.46,-52.23,-53.52
2021/10/10 21:38:10+0000,-39.19,-51.38,-32.92,-51.70,-53.15,-53.05
2021/10/10 21:39:02+0000,-39.63,-52.08,-33.35,-50.34,-52.50,-53.45
2021/10/10 21:39:54+0000,-39.39,-52.24,-33.52,-50.65,-53.24,-52.77
2021/10/10 21:40:46+0000,-39.26,-52.03,-32.75,-51.89,-52.56,-53.31
2021/10/10 21:41:42+0000,-39.68,-52.30,-33.54,-50.49,-53.24,-51.90
2021/10/10 21:42:34+0000,-39.96,-51.94,-32.63,-53.01,-52.94,-52.66
2021/10/10 21:43:26+0000,-40.76,-51.87,-32.88,-49.32,-52.99,-52.68
2021/10/10 21:44:18+0000,-41.60,-52.75,-33.43,-53.00,-52.77,-52.52
2021/10/10 21:45:11+0000,-40.91,-51.91,-33.29,-51.42,-52.93,-53.10
2021/10/10 21:46:03+0000,-41.02,-52.06,-32.45,-50.31,-53.19,-53.05
2021/10/10 21:46:55+0000,-41.16,-51.92,-32.20,-48.49,-53.32,-54.12
2021/10/10 21:47:47+0000,-40.71,-52.28,-32.55,-51.40,-52.90,-53.25
2021/10/10 21:48:39+0000,-40.99,-51.83,-32.20,-50.46,-53.38,-52.81
2021/10/10 21:49:31+0000,-40.91,-51.90,-32.86,-49.61,-53.13,-52.22
2021/10/10 21:50:23+0000,-40.63,-51.88,-33.33,-48.19,-53.22,-52.75
2021/10/10 21:51:24+0000,-41.61,-51.98,-33.36,-50.05,-52.65,-52.97
2021/10/10 21:52:16+0000,-41.12,-52.44,-33.06,-51.51,-52.92,-53.06
2021/10/10 21:53:08+0000,-40.76,-51.91,-32.93,-51.33,-53.48,-52.52
2021/10/10 21:54:00+0000,-41.54,-52.22,-32.95,-50.37,-53.12,-52.59
2021/10/10 21:54:52+0000,-41.68,-51.92,-32.94,-50.23,-52.19,-52.65
2021/10/10 21:55:44+0000,-40.55,-52.47,-33.13,-50.31,-52.22,-52.21
2021/10/10 21:56:36+0000,-40.94,-52.39,-33.29,-50.87,-52.94,-53.24
2021/10/10 21:57:28+0000,-41.48,-52.11,-32.60,-49.51,-52.93,-52.84
2021/10/10 21:58:20+0000,-41.16,-52.26,-31.94,-50.87,-52.21,-53.01
2021/10/10 21:59:12+0000,-39.83,-52.01,-32.51,-52.55,-52.10,-53.16
2021/10/10 22:00:05+0000,-40.66,-52.45,-32.28,-53.29,-52.64,-52.97
2021/10/10 22:01:12+0000,-40.91,-52.01,-32.55,-50.95,-52.39,-53.06
2021/10/10 22:02:04+0000,-40.73,-52.85,-32.42,-52.78,-52.56,-52.83
2021/10/10 22:02:56+0000,-40.60,-52.80,-32.41,-50.94,-52.32,-52.99
2021/10/10 22:03:48+0000,-40.74,-52.80,-33.04,-52.81,-52.07,-52.80
2021/10/10 22:04:40+0000,-41.71,-52.23,-33.09,-50.30,-52.36,-53.06
2021/10/10 22:05:32+0000,-40.68,-52.37,-32.85,-51.19,-52.52,-53.27
2021/10/10 22:06:24+0000,-40.14,-52.24,-32.91,-50.98,-52.41,-52.87
2021/10/10 22:07:16+0000,-40.59,-52.19,-32.47,-50.44,-52.54,-52.95
2021/10/10 22:08:08+0000,-40.75,-52.27,-32.83,-49.25,-52.65,-52.59
2021/10/10 22:09:00+0000,-40.17,-52.41,-33.12,-50.27,-53.00,-52.71
2021/10/10 22:09:52+0000,-41.22,-52.24,-32.64,-50.53,-52.00,-52.62
2021/10/10 22:10:44+0000,-40.42,-52.37,-33.23,-51.11,-52.92,-52.63
2021/10/10 22:11:46+0000,-40.09,-52.56,-33.29,-51.36,-52.30,-52.39
2021/10/10 22:12:38+0000,-40.18,-52.13,-32.66,-50.36,-51.83,-52.60
2021/10/10 22:13:30+0000,-40.80,-52.25,-33.17,-48.88,-51.61,-52.36
2021/10/10 22:14:22+0000,-40.53,-52.55,-32.88,-50.55,-51.98,-53.03
2021/10/10 22:15:14+0000,-40.65,-52.13,-31.96,-48.85,-51.48,-52.71
2021/10/10 22:16:06+0000,-40.63,-51.88,-32.46,-50.78,-51.60,-52.86
2021/10/10 22:16:58+0000,-40.97,-51.88,-32.06,-49.61,-51.70,-51.96
2021/10/10 22:17:50+0000,-40.71,-51.71,-32.76,-49.97,-51.79,-52.36
2021/10/10 22:18:42+0000,-41.32,-51.95,-32.53,-50.64,-52.00,-53.16
2021/10/10 22:19:34+0000,-40.69,-51.63,-32.66,-52.83,-51.82,-52.66
2021/10/10 22:20:26+0000,-41.01,-51.69,-32.41,-50.51,-51.86,-52.53
2021/10/10 22:21:28+0000,-41.22,-50.97,-32.86,-49.82,-51.57,-52.86
2021/10/10 22:22:20+0000,-41.00,-52.05,-32.85,-51.52,-51.12,-52.88
2021/10/10 22:23:12+0000,-41.49,-51.29,-32.99,-50.21,-50.96,-52.13
2021/10/10 22:24:04+0000,-40.90,-52.18,-33.24,-52.61,-51.35,-52.53
2021/10/10 22:24:56+0000,-41.02,-52.04,-32.66,-49.78,-52.43,-52.53
2021/10/10 22:25:48+0000,-41.43,-51.98,-33.03,-52.13,-51.70,-52.80
2021/10/10 22:26:40+0000,-40.94,-51.89,-32.56,-49.88,-51.91,-52.93
2021/10/10 22:27:32+0000,-40.66,-51.98,-33.40,-48.44,-50.88,-54.48
2021/10/10 22:28:24+0000,-41.57,-52.94,-33.64,-48.45,-51.79,-53.40
2021/10/10 22:29:16+0000,-40.31,-49.84,-32.76,-50.64,-51.52,-52.61
2021/10/10 22:30:08+0000,-40.61,-51.89,-33.43,-49.95,-51.07,-52.83
2021/10/10 22:31:06+0000,-41.35,-52.28,-32.80,-49.26,-51.00,-52.94
2021/10/10 22:31:58+0000,-41.88,-52.45,-32.91,-48.13,-51.62,-52.83
2021/10/10 22:32:50+0000,-41.19,-52.52,-32.81,-49.50,-51.73,-52.24
2021/10/10 22:33:42+0000,-41.17,-52.63,-32.68,-50.82,-52.05,-52.68
2021/10/10 22:34:34+0000,-42.18,-52.37,-33.29,-51.02,-51.65,-53.96
2021/10/10 22:35:26+0000,-40.73,-52.39,-33.43,-47.70,-51.29,-53.23
2021/10/10 22:36:18+0000,-40.70,-52.00,-33.20,-51.50,-51.50,-53.63
2021/10/10 22:37:10+0000,-40.84,-52.86,-33.10,-49.34,-51.32,-53.93
2021/10/10 22:38:02+0000,-41.02,-52.50,-33.11,-47.94,-51.30,-53.78
2021/10/10 22:38:54+0000,-39.24,-51.59,-33.81,-48.74,-51.62,-54.17
2021/10/10 22:39:46+0000,-40.33,-51.92,-32.96,-49.04,-50.74,-54.51
2021/10/10 22:40:38+0000,-40.66,-52.79,-32.82,-49.24,-52.07,-54.11
2021/10/10 22:41:41+0000,-39.77,-52.60,-32.42,-50.41,-50.99,-54.86
2021/10/10 22:42:33+0000,-40.50,-52.11,-32.98,-51.30,-51.04,-54.56
2021/10/10 22:43:25+0000,-40.56,-52.58,-33.21,-48.28,-51.49,-54.89
2021/10/10 22:44:17+0000,-40.92,-52.32,-33.26,-49.36,-51.73,-53.92
2021/10/10 22:45:09+0000,-40.77,-52.28,-32.75,-50.48,-52.03,-54.63
2021/10/10 22:46:01+0000,-40.95,-51.50,-34.10,-49.36,-51.76,-54.40
2021/10/10 22:46:53+0000,-40.77,-52.16,-33.10,-47.90,-50.98,-53.76
2021/10/10 22:47:45+0000,-40.87,-52.21,-32.94,-48.03,-51.43,-53.93
2021/10/10 22:48:37+0000,-40.54,-52.31,-32.66,-50.24,-51.54,-53.60
2021/10/10 22:49:29+0000,-40.74,-52.17,-33.10,-48.77,-49.21,-54.15
2021/10/10 22:50:21+0000,-40.43,-51.60,-32.89,-47.93,-51.53,-54.74
2021/10/10 22:51:18+0000,-40.70,-52.28,-33.24,-51.29,-51.17,-54.44
2021/10/10 22:52:10+0000,-40.31,-52.08,-33.05,-50.44,-51.57,-55.04
2021/10/10 22:53:02+0000,-40.93,-52.23,-32.93,-49.04,-49.99,-54.69
2021/10/10 22:53:54+0000,-40.62,-52.12,-32.64,-49.65,-51.45,-54.40
2021/10/10 22:54:46+0000,-40.75,-52.25,-33.06,-49.93,-50.92,-54.29
2021/10/10 22:55:38+0000,-40.81,-52.13,-32.69,-50.03,-51.84,-53.86
2021/10/10 22:56:30+0000,-40.77,-52.17,-32.88,-48.87,-51.94,-55.07
2021/10/10 22:57:22+0000,-40.86,-52.06,-32.88,-48.93,-51.15,-53.72
2021/10/10 22:58:14+0000,-40.67,-51.68,-33.56,-50.10,-51.62,-53.62
2021/10/10 22:59:06+0000,-40.60,-52.06,-33.05,-51.02,-50.31,-54.18
2021/10/10 22:59:58+0000,-40.77,-51.77,-33.20,-50.18,-51.54,-53.79
2021/10/10 23:00:50+0000,-40.62,-52.65,-33.53,-51.09,-51.32,-53.25
2021/10/10 23:01:47+0000,-40.96,-47.00,-32.91,-51.13,-51.70,-53.59
2021/10/10 23:02:39+0000,-39.88,-47.36,-32.92,-50.06,-51.45,-54.45
2021/10/10 23:03:31+0000,-40.53,-47.82,-33.08,-48.83,-51.04,-54.64
2021/10/10 23:04:23+0000,-40.80,-47.43,-33.92,-49.29,-51.82,-54.91
2021/10/10 23:05:15+0000,-40.05,-47.72,-33.36,-50.40,-51.32,-54.02
2021/10/10 23:06:07+0000,-40.84,-47.16,-32.71,-50.78,-51.66,-53.89
2021/10/10 23:06:59+0000,-40.64,-47.44,-32.86,-49.69,-51.44,-54.07
2021/10/10 23:07:51+0000,-40.35,-47.32,-34.25,-49.03,-51.13,-54.12
2021/10/10 23:08:43+0000,-41.09,-47.51,-33.53,-48.82,-51.75,-53.55
2021/10/10 23:09:35+0000,-40.47,-47.32,-33.49,-47.21,-51.73,-53.47
2021/10/10 23:10:28+0000,-40.41,-48.33,-33.13,-49.28,-51.50,-53.31
2021/10/10 23:11:29+0000,-40.57,-48.17,-32.88,-48.95,-52.35,-54.05
2021/10/10 23:12:21+0000,-40.40,-48.30,-32.35,-49.62,-52.15,-54.48
2021/10/10 23:13:13+0000,-40.01,-46.28,-33.47,-50.71,-51.94,-53.55
2021/10/10 23:14:05+0000,-40.11,-47.79,-32.78,-49.59,-52.31,-54.66
2021/10/10 23:14:57+0000,-40.17,-47.75,-33.24,-49.34,-51.31,-54.02
2021/10/10 23:15:49+0000,-41.15,-47.18,-33.19,-52.26,-51.62,-52.83
2021/10/10 23:16:41+0000,-40.05,-47.20,-33.09,-50.71,-52.07,-53.16
2021/10/10 23:17:33+0000,-39.89,-46.61,-32.85,-51.18,-51.96,-53.76
2021/10/10 23:18:25+0000,-39.97,-46.80,-33.31,-47.22,-51.87,-53.40
2021/10/10 23:19:17+0000,-40.27,-46.46,-32.90,-51.32,-51.84,-53.32
2021/10/10 23:20:10+0000,-39.70,-47.46,-32.81,-49.40,-52.58,-53.42
2021/10/10 23:21:11+0000,-40.03,-47.12,-33.62,-49.59,-52.74,-53.30
2021/10/10 23:22:03+0000,-40.23,-47.22,-32.95,-51.49,-51.84,-53.77
2021/10/10 23:22:55+0000,-39.63,-48.74,-33.32,-50.19,-52.61,-53.12
2021/10/10 23:23:47+0000,-39.64,-47.45,-33.36,-48.80,-52.09,-53.51
2021/10/10 23:24:39+0000,-40.90,-50.54,-33.12,-49.66,-52.40,-53.77
2021/10/10 23:25:31+0000,-40.22,-50.92,-32.69,-49.62,-51.39,-53.91
2021/10/10 23:26:23+0000,-40.61,-50.53,-33.10,-50.81,-52.22,-53.36
2021/10/10 23:27:15+0000,-39.92,-50.45,-33.18,-49.46,-53.07,-53.10
2021/10/10 23:28:07+0000,-39.99,-50.68,-32.83,-49.05,-51.84,-54.11
2021/10/10 23:28:59+0000,-40.86,-50.68,-33.07,-50.77,-49.95,-53.68
2021/10/10 23:29:51+0000,-40.49,-50.84,-33.20,-50.62,-52.78,-53.36
2021/10/10 23:30:43+0000,-40.06,-50.96,-33.42,-50.51,-52.33,-52.99
2021/10/10 23:31:40+0000,-40.78,-50.11,-33.63,-51.68,-52.66,-53.37
2021/10/10 23:32:32+0000,-40.20,-50.13,-33.37,-50.32,-51.33,-53.90
2021/10/10 23:33:24+0000,-39.90,-50.23,-33.51,-49.93,-51.79,-53.12
2021/10/10 23:34:16+0000,-39.50,-50.81,-33.08,-49.33,-52.72,-53.23
2021/10/10 23:35:08+0000,-40.39,-50.50,-33.02,-50.57,-51.13,-53.25
2021/10/10 23:36:00+0000,-39.22,-50.06,-33.09,-49.95,-51.16,-53.64
2021/10/10 23:36:52+0000,-40.21,-50.88,-33.37,-50.92,-52.44,-52.79
2021/10/10 23:37:44+0000,-40.40,-50.99,-33.19,-49.77,-52.43,-52.80
2021/10/10 23:38:36+0000,-40.01,-50.90,-33.10,-50.84,-51.85,-53.58
2021/10/10 23:39:28+0000,-39.67,-49.97,-33.11,-49.94,-51.93,-53.50
2021/10/10 23:40:20+0000,-40.73,-50.81,-33.04,-52.67,-52.58,-53.01
2021/10/10 23:41:16+0000,-39.90,-50.66,-33.37,-49.87,-52.20,-53.53
2021/10/10 23:42:09+0000,-39.49,-50.32,-33.41,-50.32,-52.06,-53.07
2021/10/10 23:43:01+0000,-40.36,-50.64,-33.24,-50.44,-53.06,-53.73
2021/10/10 23:43:53+0000,-40.18,-51.08,-32.57,-50.15,-52.66,-53.49
2021/10/10 23:44:45+0000,-40.29,-49.92,-33.29,-49.92,-52.40,-53.14
2021/10/10 23:45:37+0000,-40.33,-51.04,-32.45,-50.63,-51.82,-53.40
2021/10/10 23:46:29+0000,-40.33,-50.96,-33.22,-50.73,-52.99,-53.69
2021/10/10 23:47:21+0000,-40.07,-50.76,-33.09,-51.85,-52.27,-54.23
2021/10/10 23:48:13+0000,-40.30,-49.28,-33.33,-49.50,-52.10,-54.04
2021/10/10 23:49:05+0000,-40.00,-48.42,-33.36,-52.75,-51.06,-54.33
2021/10/10 23:49:57+0000,-40.41,-48.16,-32.54,-50.79,-52.51,-52.94
2021/10/10 23:50:49+0000,-39.98,-47.95,-33.34,-52.02,-51.93,-53.76
2021/10/10 23:51:46+0000,-39.91,-48.61,-32.77,-49.11,-52.32,-52.81
2021/10/10 23:52:38+0000,-39.99,-48.88,-32.73,-50.07,-52.18,-52.82
2021/10/10 23:53:30+0000,-40.66,-48.55,-32.38,-49.00,-51.68,-53.40
2021/10/10 23:54:22+0000,-41.44,-48.39,-32.83,-49.67,-51.80,-53.12
2021/10/10 23:55:14+0000,-40.85,-48.68,-33.14,-49.00,-51.69,-53.14
2021/10/10 23:56:06+0000,-40.70,-50.99,-32.53,-52.70,-52.18,-52.97
2021/10/10 23:56:58+0000,-41.01,-48.77,-33.64,-49.98,-52.63,-53.67
2021/10/10 23:57:50+0000,-41.26,-48.41,-32.45,-52.52,-52.01,-52.68
2021/10/10 23:58:42+0000,-40.84,-48.16,-32.51,-50.66,-52.63,-53.03
2021/10/10 23:59:34+0000,-41.08,-48.08,-32.72,-52.28,-52.09,-53.24
2021/10/11 00:00:26+0000,-41.42,-48.01,-32.98,-50.89,-51.74,-53.01
2021/10/11 00:01:32+0000,-40.86,-46.97,-32.44,-49.75,-52.35,-53.56
2021/10/11 00:02:24+0000,-40.54,-46.71,-33.23,-50.47,-52.36,-53.71
2021/10/11 00:03:16+0000,-40.28,-46.20,-33.00,-50.67,-52.31,-53.90
2021/10/11 00:04:08+0000,-40.53,-47.34,-32.79,-51.25,-51.28,-53.75
2021/10/11 00:05:00+0000,-40.49,-46.63,-31.98,-49.39,-51.98,-53.85
2021/10/11 00:05:52+0000,-40.24,-45.80,-33.02,-50.06,-52.42,-53.53
2021/10/11 00:06:44+0000,-41.02,-46.44,-31.96,-49.38,-52.49,-53.49
2021/10/11 00:07:36+0000,-41.25,-48.53,-32.13,-51.34,-51.78,-53.71
2021/10/11 00:08:28+0000,-40.38,-46.94,-33.07,-48.01,-52.02,-53.71
2021/10/11 00:09:20+0000,-40.89,-45.56,-32.18,-49.73,-51.81,-52.82
2021/10/11 00:10:12+0000,-40.75,-46.05,-32.55,-49.20,-51.51,-53.28
2021/10/11 00:11:10+0000,-40.54,-44.69,-32.41,-50.18,-52.50,-53.81
2021/10/11 00:12:02+0000,-40.01,-48.98,-32.44,-49.08,-51.73,-53.22
2021/10/11 00:12:54+0000,-40.83,-47.85,-33.13,-49.21,-52.80,-54.10
2021/10/11 00:13:46+0000,-40.61,-48.09,-33.18,-50.76,-51.70,-52.61
2021/10/11 00:14:38+0000,-40.67,-47.82,-32.74,-50.53,-52.62,-53.51
2021/10/11 00:15:30+0000,-39.90,-48.27,-32.02,-49.08,-52.39,-52.94
2021/10/11 00:16:22+0000,-40.53,-48.19,-33.27,-48.86,-52.13,-53.73
2021/10/11 00:17:14+0000,-39.06,-49.10,-32.31,-49.21,-52.38,-53.83
2021/10/11 00:18:06+0000,-40.56,-51.56,-32.35,-48.85,-52.45,-53.75
2021/10/11 00:18:58+0000,-39.92,-49.00,-32.64,-48.59,-52.04,-53.48
2021/10/11 00:19:50+0000,-41.43,-48.75,-33.20,-50.30,-52.32,-53.40
2021/10/11 00:20:42+0000,-40.58,-48.26,-33.21,-49.45,-51.75,-53.64
2021/10/11 00:21:38+0000,-40.70,-48.75,-33.04,-49.02,-52.12,-53.42
2021/10/11 00:22:30+0000,-40.62,-48.67,-32.99,-48.35,-52.40,-53.29
2021/10/11 00:23:23+0000,-40.22,-49.14,-33.12,-48.80,-52.11,-54.29
2021/10/11 00:24:15+0000,-40.28,-47.89,-32.87,-49.80,-52.26,-53.80
2021/10/11 00:25:07+0000,-40.29,-48.64,-32.25,-49.71,-51.53,-54.13
2021/10/11 00:25:59+0000,-40.23,-49.45,-33.01,-48.45,-52.07,-53.05
2021/10/11 00:26:51+0000,-40.20,-49.82,-32.72,-45.75,-52.49,-53.01
2021/10/11 00:27:43+0000,-39.27,-49.60,-32.91,-50.25,-52.53,-52.69
2021/10/11 00:28:35+0000,-40.97,-49.39,-32.17,-51.42,-51.73,-53.74
2021/10/11 00:29:27+0000,-40.05,-49.25,-32.90,-50.52,-51.69,-53.60
2021/10/11 00:30:19+0000,-40.08,-48.76,-33.18,-51.35,-52.21,-53.77
2021/10/11 00:31:15+0000,-40.68,-49.58,-33.16,-49.25,-52.24,-52.74
2021/10/11 00:32:08+0000,-40.74,-49.04,-32.15,-47.49,-52.43,-53.71
2021/10/11 00:33:00+0000,-39.97,-48.91,-33.74,-50.57,-51.70,-53.62
2021/10/11 00:33:52+0000,-40.32,-50.05,-32.96,-50.75,-52.59,-53.89
2021/10/11 00:34:44+0000,-39.93,-49.41,-33.02,-49.27,-52.94,-53.95
2021/10/11 00:35:36+0000,-39.95,-50.00,-32.52,-50.54,-52.42,-53.60
2021/10/11 00:36:28+0000,-40.12,-49.84,-33.64,-49.28,-52.47,-53.87
2021/10/11 00:37:20+0000,-39.72,-49.74,-33.15,-51.58,-52.78,-54.39
2021/10/11 00:38:12+0000,-40.73,-50.12,-33.27,-50.34,-52.53,-53.59
2021/10/11 00:39:04+0000,-40.30,-49.37,-32.70,-51.24,-51.76,-54.01
2021/10/11 00:39:56+0000,-39.87,-50.24,-33.80,-48.87,-52.25,-53.60
2021/10/11 00:40:48+0000,-40.42,-49.46,-33.42,-50.89,-52.06,-53.76
2021/10/11 00:41:44+0000,-40.12,-49.70,-33.07,-50.48,-52.02,-53.65
2021/10/11 00:42:36+0000,-39.34,-50.39,-33.49,-49.34,-51.73,-53.88
2021/10/11 00:43:28+0000,-39.38,-49.73,-33.62,-49.85,-51.90,-53.85
2021/10/11 00:44:20+0000,-41.12,-49.18,-34.19,-51.38,-51.51,-53.71
2021/10/11 00:45:12+0000,-40.42,-49.10,-34.22,-50.24,-51.92,-53.00
2021/10/11 00:46:05+0000,-40.20,-49.60,-33.58,-50.57,-52.17,-53.34
2021/10/11 00:46:57+0000,-40.76,-49.27,-33.11,-49.37,-51.69,-51.84
2021/10/11 00:47:49+0000,-40.45,-49.06,-33.70,-51.76,-51.76,-52.51
2021/10/11 00:48:41+0000,-40.90,-48.93,-33.27,-50.98,-52.56,-52.87
2021/10/11 00:49:33+0000,-40.83,-49.00,-32.83,-50.79,-52.15,-53.05
2021/10/11 00:50:25+0000,-41.35,-49.94,-34.03,-49.36,-52.62,-52.70
2021/10/11 00:51:22+0000,-41.25,-49.71,-33.50,-50.72,-52.35,-51.78
2021/10/11 00:52:14+0000,-40.90,-49.66,-32.99,-49.20,-52.74,-52.36
2021/10/11 00:53:06+0000,-41.36,-50.25,-33.08,-49.95,-51.89,-52.84
2021/10/11 00:53:58+0000,-39.90,-49.67,-33.90,-49.91,-51.42,-52.13
2021/10/11 00:54:50+0000,-39.53,-49.60,-32.99,-51.25,-52.48,-52.33
2021/10/11 00:55:43+0000,-40.96,-43.76,-33.55,-50.38,-52.04,-52.39
2021/10/11 00:56:35+0000,-41.28,-50.00,-33.55,-50.75,-52.04,-52.08
2021/10/11 00:57:27+0000,-37.55,-48.42,-33.81,-49.73,-52.22,-52.13
2021/10/11 00:58:19+0000,-39.21,-49.59,-32.88,-49.35,-52.30,-51.92
2021/10/11 00:59:11+0000,-39.20,-49.57,-33.29,-50.10,-52.88,-52.55
2021/10/11 01:00:03+0000,-38.65,-49.29,-33.55,-49.17,-51.91,-52.27
2021/10/11 01:01:00+0000,-39.67,-49.68,-33.09,-50.26,-51.97,-51.95
2021/10/11 01:01:52+0000,-39.56,-50.22,-33.43,-50.35,-52.17,-52.23
2021/10/11 01:02:44+0000,-39.02,-48.52,-33.78,-49.47,-51.82,-52.25
2021/10/11 01:03:36+0000,-38.02,-49.49,-32.48,-49.37,-50.79,-52.17
2021/10/11 01:04:28+0000,-39.37,-49.11,-33.28,-49.96,-50.93,-52.50
2021/10/11 01:05:20+0000,-39.64,-49.20,-33.82,-49.10,-51.84,-52.31
2021/10/11 01:06:13+0000,-39.54,-48.75,-33.01,-50.16,-52.51,-52.10
2021/10/11 01:07:05+0000,-39.76,-50.12,-33.55,-50.22,-50.81,-51.82
2021/10/11 01:07:57+0000,-40.50,-49.39,-33.18,-49.59,-51.31,-52.09
2021/10/11 01:08:49+0000,-40.08,-48.56,-33.58,-51.03,-52.29,-52.17
2021/10/11 01:09:41+0000,-40.20,-48.87,-33.45,-49.55,-52.17,-52.48
2021/10/11 01:10:33+0000,-40.34,-49.02,-33.78,-52.32,-51.24,-52.63
2021/10/11 01:11:29+0000,-39.98,-49.15,-33.19,-51.12,-50.71,-52.65
2021/10/11 01:12:21+0000,-39.57,-50.11,-33.66,-51.22,-52.67,-52.56
2021/10/11 01:13:13+0000,-39.96,-50.24,-33.30,-51.14,-52.12,-52.49
2021/10/11 01:14:05+0000,-40.10,-49.18,-32.75,-51.11,-50.54,-52.46
2021/10/11 01:14:57+0000,-40.00,-48.86,-33.07,-50.96,-50.45,-52.13
2021/10/11 01:15:49+0000,-37.31,-48.89,-33.37,-50.97,-52.23,-52.68
2021/10/11 01:16:41+0000,-39.75,-48.62,-33.51,-50.19,-52.26,-52.19
2021/10/11 01:17:33+0000,-39.22,-48.90,-33.36,-51.81,-51.02,-52.04
2021/10/11 01:18:26+0000,-39.42,-48.82,-33.12,-50.37,-53.08,-52.12
2021/10/11 01:19:18+0000,-40.14,-49.15,-32.74,-51.17,-52.63,-52.40
2021/10/11 01:20:10+0000,-39.78,-49.02,-32.79,-51.58,-53.32,-52.45
2021/10/11 01:21:06+0000,-40.21,-49.57,-32.76,-51.45,-50.88,-52.60
2021/10/11 01:21:58+0000,-37.32,-49.23,-32.81,-49.30,-51.34,-52.10
2021/10/11 01:22:50+0000,-38.11,-51.18,-33.73,-49.03,-52.61,-52.47
2021/10/11 01:23:42+0000,-39.90,-49.61,-33.31,-50.97,-53.18,-51.99
2021/10/11 01:24:34+0000,-39.04,-48.46,-32.73,-51.49,-50.93,-52.27
2021/10/11 01:25:26+0000,-39.65,-48.26,-33.65,-48.71,-51.11,-51.82
2021/10/11 01:26:18+0000,-39.69,-48.82,-33.36,-51.28,-52.86,-51.64
2021/10/11 01:27:10+0000,-39.83,-48.95,-33.89,-49.81,-53.22,-52.15
2021/10/11 01:28:02+0000,-39.92,-48.29,-33.39,-49.16,-51.31,-52.25
2021/10/11 01:28:54+0000,-35.63,-48.58,-33.62,-46.91,-52.92,-53.09
2021/10/11 01:29:47+0000,-39.52,-49.49,-33.67,-50.34,-52.53,-52.00
2021/10/11 01:30:39+0000,-39.67,-47.83,-33.69,-50.46,-52.52,-53.71
2021/10/11 01:31:35+0000,-39.16,-48.02,-33.68,-50.51,-53.14,-53.83
2021/10/11 01:32:27+0000,-37.76,-47.44,-34.02,-46.97,-53.19,-53.23
2021/10/11 01:33:19+0000,-37.83,-48.44,-33.30,-50.78,-53.02,-53.84
2021/10/11 01:34:11+0000,-39.54,-47.57,-32.66,-51.00,-53.37,-53.17
2021/10/11 01:35:03+0000,-38.86,-47.64,-31.04,-51.55,-52.22,-52.27
2021/10/11 01:35:55+0000,-39.01,-48.18,-32.90,-50.72,-53.02,-54.41
2021/10/11 01:36:47+0000,-37.96,-47.79,-32.94,-50.56,-52.53,-53.96
2021/10/11 01:37:39+0000,-38.85,-47.55,-33.39,-50.04,-52.61,-53.77
2021/10/11 01:38:31+0000,-38.92,-47.82,-32.85,-50.27,-52.98,-54.11
2021/10/11 01:39:23+0000,-38.37,-48.26,-33.23,-50.09,-52.84,-54.19
2021/10/11 01:40:16+0000,-39.01,-47.62,-33.30,-51.00,-52.68,-53.78
2021/10/11 01:41:24+0000,-38.58,-48.44,-33.33,-49.41,-53.11,-53.51
2021/10/11 01:42:16+0000,-39.66,-47.97,-33.12,-50.64,-52.77,-54.07
2021/10/11 01:43:08+0000,-39.22,-48.18,-32.85,-50.12,-52.82,-53.82
2021/10/11 01:44:00+0000,-38.73,-47.76,-32.63,-49.80,-52.85,-53.14
2021/10/11 01:44:52+0000,-39.48,-48.78,-32.93,-50.02,-52.99,-52.92